Location: ???????
(55.4362°N, 38.1183°E)
Time: 16:59:47
(UTC+00:00)

Cosmos 2333 Rocket - Pass Details

Date: 26 October 2021
Orbit: 837 x 865 km, 70.8° (Epoch: 04 December)

Event Time Altitude Azimuth Distance (km) Brightness Sun altitude
Rises 16:16:32 0° 186° (S) 3,391 5.3 -19.6°
Reaches altitude 10° 16:19:05 10° 179° (S) 2,464 4.5 -20.0°
Maximum altitude 16:24:20 41° 111° (ESE) 1,219 2.5 -20.7°
Enters shadow 16:24:28 41° 107° (ESE) 1,221 2.5 -20.7°
